www.pogodaiklimat.ru

Погода и климат >> Архив погоды >> Австралия >> Weipa Aero


ПОГОДА в Weipa Aero

  • Прогноз погоды в Weipa Aero
  • Монитор погоды в Weipa Aero
  • Климат города

АРХИВ ПОГОДЫ в Weipa Aero

Время (UTC), дата Ветер
(напр.,м/с)
 
Видим.   Явления Облачность Т
(С)
Тd
(С)
f
(%)
Тe
(С)
Тes
(С)
Комфортность P
(гПа)
Po
(гПа)
Тmin
(С)
Tmax
(С)
R
(мм)
R24
(мм)
S
(см)
02 14.05 В 8 н/о н/о +29.2 +19.5 56 +35 +35 очень
душно
1012.9 1010.7 +23.4
03 14.05 В 7 н/о н/о +30.2 +19.6 53 +36 +36 очень
душно
1012.0 1009.8
05 14.05 В 7 н/о 3/3 1000 м
[]
+31.5 +19.5 49 +37 +39 очень
душно
1010.6 1008.4
06 14.05 В 6 н/о н/о +30.9 +19.6 51 +37 +37 очень
душно
1010.6 1008.4
08 14.05 В 6 н/о 5/5 1500 м
[]
+27.7 +19.5 61 +33 +33 очень
душно
1011.9 1009.7
09 14.05 СВ 4 н/о н/о +26.3 +19.7 67 +32 +32 очень
душно
1012.6 1010.4
11 14.05 В 4 н/о н/о +24.7 +20.0 75 +30 +30 очень
душно
1013.9 1011.7
12 14.05 В 6 н/о н/о +24.5 +19.3 73 +30 +30 очень
душно
1013.6 1011.4
14 14.05 ЮВ 4 н/о н/о +23.1 +19.3 79 +29 +29 очень
душно
1013.4 1011.2 +31.8
15 14.05 ЮВ 4 н/о н/о +22.6 +19.4 82 +29 +29 очень
душно
1013.2 1011.0
17 14.05 ЮВ 2 н/о н/о +21.4 +19.1 87 +26 +26 душно 1012.5 1010.3
18 14.05 Ю 3 н/о н/о +21.0 +19.1 89 +26 +26 душно 1012.1 1009.9
20 14.05 ЮВ 2 н/о н/о +20.9 +19.0 89 +26 +26 душно 1012.4 1010.2
21 14.05 ЮВ 3 н/о н/о +21.0 +19.1 89 +26 +26 душно 1012.8 1010.6
23 14.05 ЮВ 7 н/о н/о +25.2 +19.3 70 +30 +30 душно 1013.5 1011.3
00 15.05 В 8 н/о н/о +26.5 +18.6 62 +31 +31 душно 1013.6 1011.4
02 15.05 В 7 н/о 1/1 600 м
[]
+29.1 +18.8 54 +34 +39 очень
душно
1012.2 1010.0 +20.7
03 15.05 В 7 н/о н/о +29.7 +18.2 50 +34 +34 очень
душно
1011.4 1009.2
05 15.05 В 6 н/о 6/6 1000 м
[]
+29.7 +19.1 53 +35 +37 очень
душно
1010.3 1008.1
06 15.05 В 6 н/о н/о +29.4 +18.5 52 +34 +34 очень
душно
1010.3 1008.1
08 15.05 В 4 н/о 1/1 1500 м
[]
+27.6 +19.1 60 +33 +33 очень
душно
1011.1 1008.9
09 15.05 В 4 н/о н/о +26.6 +19.2 64 +32 +32 очень
душно
1011.8 1009.6
11 15.05 В 5 н/о 9/9 1500 м
[]
+25.4 +18.6 66 +30 +30 душно 1013.8 1011.6
12 15.05 В 5 н/о н/о +25.0 +18.2 66 +29 +29 душно 1013.6 1011.4
14 15.05 В 5 н/о 10/0 2000 м
[]
+24.4 +18.3 69 +29 +29 душно 1012.8 1010.6 +31.3
15 15.05 В 4 н/о н/о +24.1 +18.5 71 +29 +29 душно 1012.3 1010.1
17 15.05 В 5 н/о 10/0 2000 м
[]
+23.6 +18.5 73 +28 +28 душно 1011.5 1009.3
18 15.05 В 5 н/о н/о +23.6 +18.5 73 +28 +28 душно 1011.3 1009.1
20 15.05 ЮВ 4 н/о 10/0 2000 м
[]
+23.3 +18.8 76 +30 +30 очень
душно
1010.8 1008.6
21 15.05 В 4 н/о н/о +23.4 +18.7 75 +30 +30 очень
душно
1011.4 1009.2
23 15.05 В 5 н/о 10/0 2000 м
[]
+26.0 +19.4 67 +31 +33 очень
душно
1012.2 1010.0
00 16.05 В 7 н/о н/о +27.5 +19.0 60 +33 +33 очень
душно
1012.2 1010.0
02 16.05 В 6 н/о 8/8 600 м
[]
+29.3 +19.9 57 +36 +37 очень
душно
1011.6 1009.4 +23.2
03 16.05 В 6 н/о н/о +30.0 +20.0 55 +36 +36 очень
душно
1010.8 1008.6
05 16.05 В 5 н/о 6/6 1000 м
[]
+29.8 +20.1 56 +36 +38 очень
душно
1010.0 1007.8
06 16.05 ЮВ 6 н/о н/о +30.1 +20.1 55 +37 +37 очень
душно
1009.6 1007.4
08 16.05 ЮВ 5 н/о 4/4 1000 м
[]
+28.1 +20.1 62 +34 +34 очень
душно
1010.5 1008.3
09 16.05 В 6 н/о н/о +27.3 +20.1 65 +34 +34 очень
душно
1011.3 1009.1
11 16.05 В 4 н/о 1/0 2000 м
[]
+25.7 +20.3 72 +32 +32 очень
душно
1012.5 1010.3
12 16.05 В 5 н/о н/о +25.1 +19.9 73 +31 +31 очень
душно
1012.7 1010.5
14 16.05 В 4 н/о н/о +24.1 +20.2 79 +30 +30 очень
душно
1012.3 1010.1 +31.3
15 16.05 ЮВ 3 н/о н/о +23.9 +20.2 80 +30 +30 очень
душно
1011.8 1009.6
17 16.05 Ю 3 н/о 6/6 1500 м
[]
+22.9 +20.1 84 +30 +30 очень
душно
1010.9 1008.7
18 16.05 ЮВ 2 н/о н/о +22.5 +20.4 88 +29 +29 очень
душно
1010.8 1008.7
20 16.05 ЮВ 3 н/о 8/8 1500 м
[]
+22.8 +20.1 85 +29 +29 очень
душно
1010.6 1008.5
21 16.05 ЮВ 3 н/о н/о +23.1 +20.1 83 +30 +30 очень
душно
1011.1 1009.0
23 16.05 ЮВ 6 н/о 6/6 1500 м
[]
+25.7 +20.0 71 +32 +32 очень
душно
1011.7 1009.6
00 17.05 В 7 н/о н/о +27.9 +19.7 61 +34 +34 очень
душно
1011.6 1009.5
02 17.05 В 8 н/о 10/10 1000 м
[]
+30.1 +19.5 53 +36 +36 очень
душно
1010.4 1008.3 +22.5
03 17.05 ЮВ 7 н/о н/о +29.4 +19.4 55 +35 +35 очень
душно
1009.7 1007.6
05 17.05 ЮВ 4 н/о 10/10 600 м
[]
+28.4 +20.2 61 +35 +35 очень
душно
1008.8 1006.7
06 17.05 ЮВ 4 н/о н/о +28.6 +20.6 62 +35 +35 очень
душно
1008.9 1006.8
08 17.05 ЮВ 4 н/о 10/10 1500 м
[]
+27.8 +20.4 64 +34 +34 очень
душно
1009.5 1007.4
09 17.05 ЮВ 2 н/о н/о +27.1 +20.7 68 +34 +34 очень
душно
1009.8 1007.7
11 17.05 ЮВ 3 н/о 10/10 1000 м
[]
+26.5 +20.8 71 +33 +33 очень
душно
1011.5 1009.4
12 17.05 ЮВ 2 н/о н/о +26.1 +20.9 73 +33 +33 очень
душно
1011.3 1009.2
14 17.05 ЮВ 3 н/о 10/10 1000 м
[]
+25.6 +20.8 75 +32 +32 очень
душно
1011.1 1009.0 +31.2
15 17.05 ЮВ 4 н/о н/о +25.0 +21.1 79 +32 +32 очень
душно
1010.9 1008.8
17 17.05 ЮВ 3 н/о 10/0 2000 м
[]
+24.2 +21.1 83 +31 +31 очень
душно
1009.9 1007.8
18 17.05 ЮВ 3 н/о н/о +23.5 +20.6 84 +29 +29 душно 1009.5 1007.4
20 17.05 ЮВ 4 н/о 5/5 600 м
[]
+23.4 +19.8 80 +30 +30 очень
душно
1010.0 1007.9
21 17.05 ЮВ 3 н/о н/о +22.7 +19.5 82 +29 +29 очень
душно
1010.4 1008.3
23 17.05 ЮВ 6 н/о 1/1 600 м
[]
+26.5 +19.4 65 +32 +34 очень
душно
1011.3 1009.2
00 18.05 В 8 н/о н/о +27.1 +19.2 62 +33 +33 очень
душно
1011.3 1009.2
02 18.05 ЮВ 6 н/о 8/8 600 м
[]
+29.2 +20.9 61 +36 +38 очень
душно
1010.6 1008.5 +22.7
03 18.05 В 7 н/о н/о +30.0 +19.7 54 +36 +36 очень
душно
1009.6 1007.5
05 18.05 ЮВ 8 н/о 10/10 1000 м
[]
+29.7 +20.0 56 +36 +36 очень
душно
1008.3 1006.2
06 18.05 ЮВ 7 н/о н/о +28.8 +19.7 58 +35 +35 очень
душно
1008.3 1006.2
08 18.05 ЮВ 5 н/о 10/10 1000 м
[]
+27.3 +19.6 63 +33 +33 очень
душно
1008.6 1006.5
09 18.05 ЮВ 5 н/о н/о +26.9 +20.0 66 +33 +33 очень
душно
1009.3 1007.2
11 18.05 ЮВ 4 н/о 10/10 1000 м
[]
+26.0 +19.6 68 +32 +32 очень
душно
1010.9 1008.8
12 18.05 ЮВ 3 н/о н/о +25.3 +19.9 72 +31 +31 очень
душно
1011.1 1009.0
14 18.05 ЮВ 3 н/о 9/0 2000 м
[]
+24.7 +20.4 77 +31 +31 очень
душно
1011.0 1008.9 +30.5
15 18.05 В 3 н/о н/о +24.4 +20.3 78 +30 +30 очень
душно
1010.5 1008.4
17 18.05 ЮВ 4 н/о 10/10 600 м
[]
+24.6 +19.9 75 +30 +30 очень
душно
1009.4 1007.3
18 18.05 ЮВ 4 н/о н/о +24.3 +19.4 74 +29 +29 душно 1009.4 1007.3
20 18.05 ЮВ 3 н/о н/о +23.1 +19.3 79 +29 +29 очень
душно
1009.5 1007.4
21 18.05 ЮВ 3 н/о н/о +22.8 +19.4 81 +29 +29 очень
душно
1010.0 1007.9
23 18.05 В 6 н/о 9/9 600 м
[]
+26.6 +20.7 70 +33 +33 очень
душно
1011.0 1008.9
00 19.05 В 8 н/о н/о +26.9 +20.5 68 +33 +33 очень
душно
1011.0 1008.9
02 19.05 В 9 н/о 10/10 600 м
[]
+29.0 +20.4 60 +36 +36 очень
душно
1009.9 1007.8 +22.6
03 19.05 В 9 н/о н/о +30.5 +20.4 55 +37 +37 очень
душно
1009.1 1007.0
05 19.05 ЮВ 9 н/о 10/10 600 м
[]
+29.0 +21.0 62 +36 +36 очень
душно
1008.3 1006.2
06 19.05 В 8 н/о н/о +29.4 +20.8 60 +37 +37 очень
душно
1008.4 1006.3
08 19.05 ЮВ 8 н/о 1/0 2000 м
[]
+26.7 +20.8 70 +33 +33 очень
душно
1009.5 1007.4
09 19.05 В 6 н/о н/о +26.1 +20.9 73 +33 +33 очень
душно
1010.3 1008.2
11 19.05 ЮВ 5 н/о н/о +25.2 +20.2 74 +31 +31 очень
душно
1011.8 1009.7
12 19.05 В 4 н/о н/о +24.7 +20.4 77 +31 +31 очень
душно
1012.1 1010.0
14 19.05 ЮВ 3 н/о 4/4 600 м
[]
+24.2 +20.7 81 +30 +30 очень
душно
1011.6 1009.5 +31.6
15 19.05 ЮВ 3 н/о н/о +23.7 +20.4 82 +29 +29 душно 1011.0 1008.9
17 19.05 ЮВ 3 н/о 1/1 600 м
[]
+23.6 +19.9 80 +29 +29 душно 1010.0 1007.9
18 19.05 ЮВ 3 н/о н/о +23.1 +19.9 82 +30 +30 очень
душно
1009.8 1007.7
20 19.05 ЮВ 3 н/о 5/5 600 м
[]
+22.8 +20.0 84 +29 +29 очень
душно
1010.4 1008.3
21 19.05 Ю 2 н/о н/о +22.7 +19.9 84 +29 +29 очень
душно
1011.2 1009.1
23 19.05 ЮВ 7 н/о н/о +26.6 +20.2 68 +33 +33 очень
душно
1011.8 1009.7
00 20.05 В 8 н/о н/о +27.9 +20.7 65 +35 +35 очень
душно
1011.9 1009.8
02 20.05 В 8 н/о 10/10 600 м
[]
+29.9 +20.7 58 +37 +37 очень
душно
1011.3 1009.2 +22.3
03 20.05 В 7 н/о н/о +29.5 +20.9 60 +37 +37 очень
душно
1010.7 1008.6
05 20.05 В 8 н/о 10/10 600 м
[]
+30.5 +20.7 56 +38 +38 очень
душно
1009.8 1007.7
06 20.05 В 6 н/о н/о +29.2 +21.4 63 +37 +37 очень
душно
1010.3 1008.2
08 20.05 В 6 н/о н/о +27.8 +21.1 67 +35 +35 очень
душно
1010.9 1008.8
09 20.05 ЮВ 5 н/о н/о +27.1 +20.7 68 +34 +34 очень
душно
1011.6 1009.5
11 20.05 ЮВ 4 н/о н/о +26.0 +20.6 72 +32 +32 очень
душно
1012.9 1010.8
12 20.05 ЮВ 4 н/о н/о +25.5 +20.5 74 +32 +32 очень
душно
1013.1 1011.0
14 20.05 ЮВ 6 н/о 9/9 600 м
[]
+25.3 +21.2 78 +32 +32 очень
душно
1012.6 1010.5 +31.6
15 20.05 ЮВ 5 н/о н/о +25.2 +20.9 77 +32 +32 очень
душно
1012.1 1010.0
17 20.05 ЮВ 5 н/о 9/9 600 м
[]
+25.1 +21.0 78 +32 +32 очень
душно
1010.9 1008.8
18 20.05 ЮВ 5 н/о н/о +25.0 +20.7 77 +31 +31 очень
душно
1010.6 1008.5
20 20.05 В 6 н/о 10/10 600 м
[]
+25.3 +20.5 75 +31 +31 очень
душно
1011.2 1009.1
21 20.05 В 5 н/о н/о +25.0 +20.7 77 +31 +31 очень
душно
1011.8 1009.7
23 20.05 В 8 н/о 8/8 600 м
[]
+27.2 +21.0 69 +34 +34 очень
душно
1012.6 1010.5
00 21.05 В 8 н/о н/о +29.0 +22.0 66 +37 +37 очень
душно
1012.4 1010.3

 

Местоположение метеостанции Weipa Aero (Квинсленд, Австралия): широта -12.68 долгота 141.91 высота над уровнем моря 19 м.

В архиве по умолчанию представлена погода в Weipa Aero за последнюю неделю. Архивные данные за месяц целиком и за предыдущие месяцы, начиная с января 2011 года, Вы можете получить, выбрав интересующий диапазон дат из раскрывающегося списка и нажав кнопку "Ввод!".


*Определитесь, кто Вы:
робот инопланетянин человек

Внимание! Время в таблицах - всемирное. Для получения местного времени необходимо прибавить поправку, которая в Weipa Aero равна 10 ч.

Смотрите также архив погоды в соседних городах и на ближайших метеорологических станциях:

Погода в Scherger Raaf (Квинсленд, Австралия) (21 км)
Погода в Lockhart River Airport (Квинсленд, Австралия) (151 км)
Погода в Coen Airport (Квинсленд, Австралия) (179 км)
Погода в Horn Island (Квинсленд, Австралия) (237 км)
Погода в Kowanyama Airport (Квинсленд, Австралия) (312 км)
Погода в Coconut Island (Квинсленд, Австралия) (319 км)
Погода в Palmerville (Квинсленд, Австралия) (436 км)
Погода в Cape Flattery (Квинсленд, Австралия) (448 км)
Погода в Cooktown Airport (Квинсленд, Австралия) (468 км)
Погода в Merauke (Индонезия) (497 км)

Пояснения к столбцам:

Ветер - указаны скорость ветра в м/с - средняя за 10 мин, порывы в срок и между сроками (в фигурных скобках) и направление, откуда дует ветер: С - северный, СВ - северо-восточный, В - восточный, ЮВ - юго-восточный, Ю - южный, ЮЗ - юго-западный, З - западный, СЗ - северо-западный.
Видимость - горизонтальная дальность видимости в метрах или километрах. При видимости от 1 до 10 км при отсутствии осадков обычно наблюдается дымка, при ухудшении видимости до 1 км и менее - туман. В сухую погоду видимость может ухудшаться дымом, пылью или мглою.
Явления - указаны атмосферные явления, наблюдавшиеся в срок или в последний час перед сроком; фигурными скобками обозначены явления, наблюдавшиеся между сроками (за 1-3 часа до срока); квадратными скобками обозначены град или гололедные отложения с указанием их диаметра в мм.
Облачность - указаны через наклонную черту общая и нижняя облачность в баллах и высота нижней границы облаков в метрах; квадратными скобками обозначены формы облаков: Ci - перистые, Cs - перисто-слоистые, Cc - перисто-кучевые, Ac - высококучевые, As - высокослоистые, Sc - слоисто-кучевые, Ns - слоисто-дождевые, Cu - кучевые, Cb - кучево-дождевые. Подробнее классификацию облаков см. в Атласе облаков (PDF).
T - Температура воздуха - температура, измеренная на высоте 2 м над землей.
Td - Температура точки росы - температура, при понижении до которой содержащийся в воздухе водяной пар достигнет насыщения.
f - Относительная влажность воздуха - влажноcть воздуха, измеренная на высоте 2 м над землей.
Te - Эффективная температура - температура, которую ощущает одетый по сезону человек в тени. Характеристика душности погоды. При расчете учитывается влияние влажности воздуха и скорости ветра на теплоощущения человека.
Tes - Эффективная температура на солнце - температура, которую ощущает человек, с поправкой на солнечный нагрев. Характеристика знойности погоды. Зависит от высоты солнца над горизонтом, облачности и скорости ветра. Ночью, в пасмурную погоду, а также при ветре 12 м/с и более поправка равна нулю.
P - Атмосферное давление - приведенное к уровню моря атмосферное давление.
Po - Атмосферное давление - измеренное на уровне метеостанции атмосферное давление.
Tmin - Минимальная температура - минимум температуры воздуха на высоте 2 м над землей.
Tmax - Максимальная температура - максимум температуры воздуха на высоте 2 м над землей.
R - Количество осадков - Количество выпавших осадков за период времени, мм. При наведении курсора мыши на число - период времени, за который выпало указанное количество осадков.
R24 - Количество осадков - Количество выпавших осадков за 24 часа, мм.
S - Снежный покров - Высота снежного покрова, см. При наведении курсора мыши на число - состояние снежного покрова и степень покрытия местности в баллах.